Location: Ústí nad Labem
(50.6611°N, 14.0531°E)
Time: 19:35:15
(UTC+02:00)

Vanguard 3 - All Passes

Search period start: 23 April 2024 00:00
Search period end: 03 May 2024 00:00
Orbit: 510 x 3235 km, 33.3° (Epoch: 23 April)

Date Brightness Start Highest point End Pass type
(mag) Time Alt. Az. Time Alt. Az. Time Alt. Az.
23 Apr - 01:29:18 10° SSE 01:33:30 11° SE 01:37:23 10° SE visible
23 Apr - 03:34:21 10° SSW 03:45:54 24° SSE 03:54:13 10° ESE visible
23 Apr - 05:47:07 10° SW 05:57:57 29° S 06:05:01 10° SE daylight
23 Apr - 08:02:09 10° WSW 08:08:46 20° SSW 08:13:30 10° SSE daylight
24 Apr - 02:16:42 10° S 02:27:30 20° SSE 02:36:02 10° ESE visible
24 Apr - 04:27:27 10° SW 04:39:59 30° S 04:48:25 10° ESE visible
24 Apr - 06:41:48 10° WSW 06:51:39 27° SSW 06:58:07 10° SE daylight
24 Apr - 08:58:36 10° WSW 09:01:44 12° SW 09:04:23 10° SSW daylight
25 Apr - 01:01:23 10° SSE 01:09:01 14° SE 01:15:47 10° ESE visible
25 Apr - 03:08:24 10° SSW 03:21:37 27° SSE 03:31:09 10° ESE visible
25 Apr - 05:21:36 10° WSW 05:33:58 32° S 05:41:59 10° SE daylight
25 Apr - 07:37:04 10° WSW 07:45:00 22° SSW 07:50:32 10° SSE daylight
26 Apr - 01:50:28 10° SSW 02:02:59 23° SSE 02:12:56 10° ESE visible
26 Apr - 04:01:43 10° SW 04:15:45 33° S 04:25:15 10° ESE visible
26 Apr - 06:16:25 10° WSW 06:27:42 30° SSW 06:35:01 10° SE daylight
26 Apr - 08:33:27 10° WSW 08:37:55 14° SW 08:41:33 10° S daylight
27 Apr - 00:34:32 10° S 00:44:20 17° SE 00:53:00 10° ESE visible
27 Apr - 02:42:31 10° SW 02:57:06 30° SSE 03:07:49 10° ESE visible
27 Apr - 04:56:00 10° WSW 05:09:46 35° S 05:18:46 10° SE visible
27 Apr - 07:11:47 10° WSW 07:21:03 24° SSW 07:27:24 10° SSE daylight
28 Apr - 01:24:26 10° SSW 01:38:15 25° SSE 01:49:29 10° ESE visible
28 Apr - 03:35:59 10° SW 03:51:16 36° S 04:01:52 10° ESE visible
28 Apr - 05:50:54 10° WSW 06:03:32 32° SSW 06:11:46 10° SE daylight
28 Apr - 08:08:12 10° WSW 08:13:57 15° SW 08:18:27 10° S daylight
29 Apr - 00:08:10 10° S 00:19:28 19° SE 00:29:37 10° ESE visible
29 Apr - 02:16:43 10° SW 02:32:23 33° SSE 02:44:15 10° ESE visible
29 Apr - 04:30:21 10° WSW 04:45:21 37° S 04:55:21 10° ESE visible
29 Apr - 06:46:22 10° WSW 06:56:54 25° SSW 07:04:06 10° SSE daylight
29 Apr - 22:56:29 10° SSE 23:00:58 11° SE 23:05:22 10° ESE visible
30 Apr - 00:58:35 10° SSW 01:13:19 28° SSE 01:25:45 10° ESE visible
30 Apr - 03:10:17 10° SW 03:26:35 38° S 03:38:16 10° ESE visible
30 Apr - 05:25:18 10° WSW 05:39:10 34° SSW 05:48:21 10° SE daylight
30 Apr - 07:42:49 10° WSW 07:49:47 17° SW 07:55:08 10° S daylight
30 Apr - 23:42:09 10° S 23:54:24 21° SE 00:05:48 10° ESE visible
01 May - 01:51:02 10° SW 02:07:26 36° SSE 02:20:27 10° ESE visible
01 May - 04:04:40 10° WSW 04:20:42 39° S 04:31:46 10° ESE visible
01 May - 06:20:48 10° WSW 06:32:33 27° SSW 06:40:38 10° SSE daylight
01 May - 22:29:13 10° SSE 22:35:54 13° SE 22:42:31 10° ESE visible
02 May - 00:32:56 10° SSW 00:48:12 30° SSE 01:01:43 10° ESE visible
02 May - 02:44:38 10° SW 03:01:40 40° S 03:14:27 10° ESE visible
02 May - 04:59:37 10° WSW 05:14:34 35° SSW 05:24:44 10° SE visible
02 May - 07:17:19 10° WSW 07:25:25 18° SW 07:31:37 10° S daylight
02 May - 23:16:26 10° S 23:29:12 22° SE 23:41:37 10° E visible
